Regional Weather Roundup
Issued by NWS

Home | Current Version | Previous Version | Graphics & Text | Print | Product List | Glossary Off
Versions: 1 2 3 4 5 6 7 8 9 10 11 12 13 14 15 16 17 18 19 20 21 22 23 24 25 26 27 28 29 30 31 32 33 34 35 36 37 38 39 40 41 42 43 44 45 46 47 48 49 50

000
ASUS43 KMPX 220710
RWRMN
WEATHER ROUNDUP FOR MINNESOTA
NATIONAL WEATHER SERVICE TWIN CITIES/CHANHASSEN MN
100 AM CST WED FEB 22 2017


NOTE: "FAIR" INDICATES FEW OR NO CLOUDS BELOW 12,000 FEET WITH NO
SIGNIFICANT WEATHER AND/OR OBSTRUCTIONS TO VISIBILITY. N/A MEANS
CURRENT SKY AND/OR WEATHER CONDITIONS ARE NOT AVAILABLE.

MNZ060>063-068>070-220800-
   Twin Cities Metro

CITY           SKY/WX    TMP DP  RH WIND       PRES   REMARKS
TWIN CITIES    MOCLDY    44  40  85 CALM      29.69R
ST PAUL        FOG       38  38 100 SE3       29.69S VSB 1
CRYSTAL        CLOUDY    40  38  93 CALM      29.67R FOG
BLAINE         FOG       43  43 100 CALM      29.68S VSB 1/2
LAKEVILLE      PTCLDY    43  43 100 CALM      29.67S
EDEN PRAIRIE   CLOUDY    44  42  93 W3        29.67R
SOUTH ST PAUL  CLOUDY    38  38  99 CALM      29.68S FOG
LAKE ELMO      FOG       39  39 100 CALM      29.69R VSB 3/4
$$
MNZ001>005-007-008-013>017-022>024-027-028-220800-
   Northwest Minnesota

CITY           SKY/WX    TMP DP  RH WIND       PRES   REMARKS
BEMIDJI        CLOUDY    35  35 100 CALM      29.64F FOG
HALLOCK        PTCLDY    30  30 100 CALM      29.69R
ROSEAU         CLOUDY    30  27  86 N6        29.68R HAZE    WCI  24
WARROAD        CLOUDY    32  28  86 NE6       29.68S WCI  26
THIEF RVR FALL CLOUDY    32  31  96 W6        29.67R FOG     WCI  26
CROOKSTON      CLOUDY    32  32 100 NW6       29.69R FOG     WCI  26
FOSSTON        FOG       32  32 100 S3        29.65F VSB<1/4
DETROIT LAKES  CLOUDY    32  32 100 CALM      29.64F
MOORHEAD       FOG       34  32  93 CALM      29.66R VSB 1/2
PARK RAPIDS    CLOUDY    33  30  88 S3        29.65F
MAHNOMEN       FAIR      33  33  99 CALM      29.64S FOG
$$
MNZ006-009>011-018-025>026-220800-
   North Central Minnesota

CITY           SKY/WX    TMP DP  RH WIND       PRES   REMARKS
BAUDETTE       MOCLDY    31  30  96 NE6       29.65R WCI  25
FLAG ISLAND    CLOUDY    34  30  86 N5        29.68R WCI  30
INTL FALLS     PTCLDY    32  30  92 CALM      29.64S
WASKISH        CLOUDY    34  32  93 CALM      29.65S
BIG FORK       CLOUDY    36  32  87 CALM      29.64R
LONGVILLE      CLOUDY    32  32 100 CALM      29.65F
GRAND RAPIDS   CLOUDY    39  36  89 W3        29.66S
CRANE LAKE     CLOUDY    28  28 100 CALM      29.65F
ORR            CLOUDY    34  30  86 CALM      29.60F
COOK           MOCLDY    34  30  86 CALM      29.62F
WALKER         PTSUNNY   35  34  99 CALM      29.64F
$$
MNZ012-019>021-037-220800-
   Northeast Minnesota

CITY           SKY/WX    TMP DP  RH WIND       PRES   REMARKS
DULUTH         MOCLDY    40  37  89 CALM      29.64S
ELY            CLOUDY    36  34  93 CALM      29.62F
HIBBING        CLOUDY    37  37 100 S3        29.62S
EVELETH        PTCLDY    40  36  87 SW5       29.65R
DULUTH HARBOR  CLOUDY    36  34  93 CALM      29.67S
TWO HARBORS    PTCLDY    39  36  87 CALM      29.63S
SILVER BAY     CLOUDY    37  36  93 CALM      29.64R
GRAND MARAIS     N/A     35  32  88 N3        29.64F
G MARAIS ARPRT CLOUDY    30  27  86 W3        29.63F
$$
MNZ029>031-032-039>041-046>048-054>057-064-220800-
   West Central Minnesota

CITY           SKY/WX    TMP DP  RH WIND       PRES   REMARKS
FERGUS FALLS   CLOUDY    39  36  87 SE10      29.65F
WHEATON        PTCLDY    37  37 100 CALM      29.66R
MORRIS         PTCLDY    37  37 100 E7        29.63F
ALEXANDRIA     PTCLDY    36  36 100 NE6       29.65F
ELBOW LAKE     FAIR      41  39  93 NE6       29.63F
WADENA         MOCLDY    34  34 100 CALM      29.65F FOG
GLENWOOD       CLOUDY    39  39 100 N9        29.65F
APPLETON       CLOUDY    41  39  93 NE5       29.65F
BENSON         CLOUDY    36  34  93 CALM      29.67F
ORTONVILLE       N/A     39  37  93 CALM      29.65F
MADISON        DRIZZLE   45  45 100 N6        29.67R
WILLMAR        FOG       39  39 100 CALM      29.67S VSB 3/4
$$
MNZ033>034-036-042>043-049>051-058-059-220800-
   Central Minnesota

CITY           SKY/WX    TMP DP  RH WIND       PRES   REMARKS
ST CLOUD       FOG       34  34 100 CALM      29.66F VSB 1/2
SAUK CENTRE    PTSUNNY   33  33 100 N5        29.66F WCI  29
PAYNESVILLE    CLOUDY    34  34 100 N3        29.66F
AITKIN         CLOUDY    32  28  86 CALM      29.65F
PINE RIVER     CLOUDY    30  30 100 CALM      29.70F FOG
BRAINERD       PTCLDY    31  31 100 CALM      29.65F FOG
STAPLES        FOG       34  34 100 CALM      29.66F VSB 1
LONG PRAIRIE   FAIR      34  34 100 CALM      29.67F FOG
LITTLE FALLS   FOG       32  32 100 CALM      29.68F VSB 1
LITCHFIELD     FOG       39  39 100 CALM      29.66F VSB 1/2
BUFFALO        CLOUDY    36  35  95 CALM      29.67F FOG
MAPLE LAKE     FOG       36  36  99 CALM      29.67F VSB 1/4
HUTCHINSON     PTCLDY    39  39 100 E3        29.67S
$$
MNZ037-044-045-052-053-220800-
   East Central Minnesota

CITY           SKY/WX    TMP DP  RH WIND       PRES   REMARKS
PRINCETON      FOG       36  36 100 CALM      29.67F VSB 1
MORA           FOG       32  32 100 CALM      29.68F VSB 1/2
CAMBRIDGE      FOG       39  37  93 CALM      29.65F VSB 1
RUSH CITY      FOG       34  34 100 CALM      29.68S VSB 1/2
MOOSE LAKE     CLOUDY    32  32 100 CALM      29.65F FOG
HINCKLEY       FOG       32  32 100 CALM      29.67S VSB 1/2
CLOQUET        CLOUDY    39  36  87 W3        29.65F
MCGREGOR       CLOUDY    34  32  93 SW5       29.67R WCI  30
$$
MNZ071>073-080-081-089-090-097-098-220800-
   Southwest Minnesota

CITY           SKY/WX    TMP DP  RH WIND       PRES   REMARKS
MONTEVIDEO     LGT RAIN  43  43 100 NE3       29.65R
GRANITE FALLS  LGT RAIN  47  43  86 N8G16     29.64R
CANBY          RAIN      46  42  84 NW14      29.70R
MARSHALL       MOCLDY    48  40  73 SW8       29.62F
REDWOOD FALLS  CLOUDY    45  39  79 SE7       29.59F
OLIVIA         CLOUDY    45  41  87 N9        29.62F
PIPESTONE      PTCLDY    54  36  50 SE12      29.63F
WINDOM         PTCLDY    45  37  76 S7        29.66F
WORTHINGTON    CLOUDY    46  36  68 CALM      29.68R
JACKSON        CLEAR     45  34  65 CALM      29.70R
TRACY          PTCLDY    53  41  64 S10       29.61F
SLAYTON        CLOUDY    43  38  82 S8        29.66F
$$
MNZ065>067-074>077-082>085-091>093-220800-
   South Central Minnesota

CITY           SKY/WX    TMP DP  RH WIND       PRES   REMARKS
MANKATO          N/A     43  40  89 S5        29.70R
NEW ULM        PTCLDY    43  39  87 CALM      29.65F
ST JAMES       CLEAR     37  36  93 CALM      29.68F
FAIRMONT       CLEAR     38  35  89 CALM      29.69S
GLENCOE        CLOUDY    40  40 100 N6        29.66F
FARIBAULT      CLOUDY    43  39  87 S3        29.69S
OWATONNA       CLOUDY    45  37  76 S7        29.69S
WASECA         CLOUDY    41  37  87 W5        29.72R
ALBERT LEA     CLEAR     45  39  81 S6        29.69F
$$
MNZ078>079-086>088-094>096-220800-
   Southeast Minnesota

CITY           SKY/WX    TMP DP  RH WIND       PRES   REMARKS
ROCHESTER      CLEAR     41  36  82 S10       29.71F
RED WING       CLEAR     39  37  93 CALM      29.68S
STANTON        PTCLDY    41  37  87 S5        29.67R
DODGE CENTER   CLEAR     45  37  76 S9        29.69F
WINONA         CLEAR     52  37  58 SW8       29.72S
AUSTIN         CLEAR     43  36  75 S6        29.72S
PRESTON        CLEAR     46  36  68 S12       29.72F
$$
ABBREVIATIONS USED IN REMARKS
   TC - TEMPERATURES IN CELSIUS
  WCI - WIND CHILL INDEX
   HX - HEAT INDEX
  VSB - VISIBILITY
$$




USA.gov is the U.S. government's official web portal to all federal, state and local government web resources and services.